Location: Góry Miechowskie
(50.3599°N, 20.1803°E)
Time: 22:30:21
(UTC+00:00)

Transit 2A Rocket - Pass Details

Date: 20 September 2024
Orbit: 582 x 908 km, 66.7° (Epoch: 09 October)

Event Time Altitude Azimuth Distance (km) Brightness Sun altitude
Exits shadow 20:58:35 15° 44° (NE) 2,239 7.5 -35.2°
Drops below altitude 10° 20:59:36 10° 42° (NE) 2,598 7.9 -35.3°
Sets 21:02:08 0° 39° (NE) 3,530 8.7 -35.5°
